NOAA 16 DEB, 42426

Orbit data source: Space-Track

NOAA 16 DEB, 42426 is space debris in SSO originally from a launch on Thu, 21 Sep 2000 UTC launched from the Air Force Western Test Range (AFWTR). Debris objects in space refer to the collection of defunct objects orbiting the Earth. Examples of debris include non-operational satellites, rocket bodies, and fragments generated from explosions, collisions, or faulty payload assembly.

Loading next visibility...
Identifier
42426, 2000-055TW
Orbit
SSO
Country
Flag of USUS
Related business
Manufacturer
Unknown
Mission
Spacecraft
Bus & Motor
Unknown
Mass
Unknown
Launch date (UTC)
2000-09-21 (25 years ago)
Launch vehicle
Unknown
Launch site
Air Force Western Test Range (AFWTR)
Object type
Payload
Rocket body
Debris
Shape & HBR
Unknown shape, 0.1 m
Radar Cross Section
Small (<0.1 m²)

Expand to show TLE details & history
Last TLE update: 1 week ago

TLE from 1 week ago
0 NOAA 16 DEB
1 42426U 00055TW  25297.30237030  .00004735  00000-0  20847-2 0  9993
2 42426  98.5971 320.5230 0014651 115.2122 245.0577 14.23823640474676
Epoch: 2025-10-24T07:15Z
TLE epoch observation values (Epoch: 2025-10-24T07:15:24.793Z)
Latitude
-0.00011°
Longitude
178.72049°
Altitude
819.83 km
Speed
7.441 km/s
True Right ascension
21h 22m 05s
True Declination
0° 00' 00"
Sunlit
Object was in daylight at epoch
Visualization orbit readout
Latitude
Unknown
Longitude
Unknown
Altitude
Unknown
Speed
Unknown
Apparent Right ascension
Unknown
Apparent Declination
Unknown
Sunlit
N/A
Visualization observer readout
Local Sidereal Time
05:13:33
Azimuth
Unknown
Elevation
Unknown
Doppler factor
Unknown
Orbital elements
Apogee altitude
820.129 km
Perigee altitude
799.068 km
Semi-major axis
7,187.736 km
Eccentricity
0.00147
Inclination
98.5971°
RAAN
320.523°
Arg. of periapsis
115.2122°
True anomaly
244.90559°
Mean anomaly
245.0577°
Eccentric anomaly
244.98163°
Mean motion
3.56168 °/min
Orbital period
101.08 mins
BSTAR
0.0020847
Loading maneuver chart data...
Computing Atmospheric mass density...
Loading historical data...
Loading historical data...
Loading historical data...
Loading historical data...
Loading historical data...
Loading historical data...
Loading historical data...

Documentation

Showing up to 5 results
|